Regional Weather Roundup
Issued by NWS

Home | Current Version | Previous Version | Graphics & Text | Print | Product List | Glossary Off
Versions: 1 2 3 4 5 6 7 8 9 10 11 12 13 14 15 16 17 18 19 20 21 22 23 24 25 26 27 28 29 30 31 32 33 34 35 36 37 38 39 40 41 42 43 44 45 46 47 48 49 50

000
ASUS44 KFWD 252315
RWRTX
NORTH TEXAS HOURLY WEATHER ROUNDUP
NATIONAL WEATHER SERVICE FORT WORTH TX
600 PM CDT SAT APR 25 2015

NOTE: "FAIR" INDICATES FEW OR NO CLOUDS BELOW 12,000 FEET WITH NO
SIGNIFICANT WEATHER AND/OR OBSTRUCTIONS TO VISIBILITY.

TXZ118-119-260000-
DALLAS/FORT WORTH METROPLEX

CITY           SKY/WX    TMP DP  RH WIND       PRES   REMARKS
DFW AIRPORT    SUNNY     86  46  24 W15       29.64R
DALLAS LOVE    SUNNY     87  44  22 W14G21    29.64R
FTW MEACHAM    SUNNY     85  49  28 SW10      29.64S
DAL-EXECUTIVE  SUNNY     85  47  26 W7        29.65R
FTW-ALLIANCE   SUNNY     84  45  25 W10       29.64S
FTW-NAS-JRB      N/A    N/A N/A N/A MISG        N/A
FTW-SPINKS     SUNNY     84  52  32 SW10      29.67S
ARLINGTON      SUNNY     86  45  23 W7        29.65S
GRAND PRAIRIE  SUNNY     88  48  25 SW10      29.66S
ADDISON        SUNNY     86  36  16 W15G21    29.63S
MESQUITE       SUNNY     86  45  23 SW13      29.65S
LANCASTER      SUNNY     85  49  28 SW10      29.66S
$$

TXZ091>094-102>105-117-120-121-131>134-260000-
NORTH CENTRAL TEXAS

CITY           SKY/WX    TMP DP  RH WIND       PRES   REMARKS
SHRMAN/DENISON SUNNY     83  56  39 W8        29.65S
GAINESVILLE    SUNNY     82  52  36 W6        29.66F
BOWIE          SUNNY     83  47  28 SW7       29.65S
BRIDGEPORT     SUNNY     84  47  27 W10G16    29.67S
DECATUR        SUNNY     83  42  23 W12       29.66S
DENTON         SUNNY     83  51  33 W10       29.64R
MCKINNEY       SUNNY     85  50  29 W12       29.64S
GREENVILLE     SUNNY     86  43  22 W7        29.64S
ROCKWALL       SUNNY     87  46  24 W10G17    29.63S
TERRELL        SUNNY     88  56  33 SW13      29.65R
WAXAHACHIE     SUNNY     85  52  32 CALM      29.67S
CLEBURNE       SUNNY     84  50  30 SW10      29.68S
GRANBURY       PTSUNNY   85  50  29 SW12      29.67S
$$

TXZ083>090-098>101-113>116-127>130-139>142-154-155-260000-
WESTERN NORTH TEXAS

CITY           SKY/WX    TMP DP  RH WIND       PRES   REMARKS
WICHITA FALLS  SUNNY     84  49  29 SW14      29.61F
WF-KICKAPOO    SUNNY     87  45  23 S14       29.63S
VERNON         SUNNY     88  20   8 W10       29.62S
ABILENE        SUNNY     85  36  17 W13G23    29.70F
ABILENE-DYESS  SUNNY     85  44  23 W13       29.69F
BRECKENRIDGE   SUNNY     87  38  17 W13       29.67F HAZE
GRAHAM         SUNNY     84  49  29 SW13G18   29.66S
MINERAL WELLS  SUNNY     84  47  27 W10       29.65S
STEPHENVILLE   SUNNY     83  43  23 W13       29.73S
COMANCHE       SUNNY     83  45  26 W9G20     29.71F
BROWNWOOD      SUNNY     84  43  23 W10       29.71S
COLEMAN        SUNNY     85  44  23 W8        29.71F
BRADY          SUNNY     90  32  12 W9        29.72S
$$

TXZ143>147-156>162-174-175-260000-
CENTRAL TEXAS

CITY           SKY/WX    TMP DP  RH WIND       PRES   REMARKS
WACO           SUNNY     86  48  26 W10       29.68R
WACO-TSTC      SUNNY     86  50  28 W14       29.67S
WACO-MCGREGOR  SUNNY     88  50  27 W12       29.69S
HILLSBORO      SUNNY     85  52  32 SW8       29.68S
CORSICANA      SUNNY     86  53  32 SW7       29.67S
MEXIA          SUNNY     85  53  32 SW13      29.67S
HEARNE         SUNNY     88  59  37 S3        29.68F
CAMERON        SUNNY     91  52  26 SW3       29.68S
TEMPLE         SUNNY     88  46  23 W9G16     29.68F
KILLEEN        SUNNY     86  45  23 NW8       29.69S
KILLEEN-SKYLRK SUNNY     90  45  20 W7        29.69S
FORT HOOD      SUNNY     87  44  22 NW10      29.68F
GATESVILLE     SUNNY     88  45  22 W7        29.71F
LAMPASAS       SUNNY     85  46  25 NW3       29.70S
$$

TXZ095>097-106>112-122>126-135>138-148>153-164>167-260000-
EAST TEXAS

CITY           SKY/WX    TMP DP  RH WIND       PRES   REMARKS
PARIS          SUNNY     82  52  34 MISG      29.64S
SULPHUR SPRNGS SUNNY     84  49  29 W9        29.66R
MOUNT PLEASANT SUNNY    N/A N/A N/A SW9       29.65S
GILMER         SUNNY     86  49  27 SW6       29.65S
TYLER          SUNNY     86  48  26 SW10      29.66S
LONGVIEW       SUNNY     86  51  29 SW10      29.65S
MARSHALL       SUNNY     89  55  32 SW8       29.66S
ATHENS         SUNNY     82  54  36 CALM      29.66S
PALESTINE      SUNNY     89  55  31 W5        29.68S
JACKSONVILLE   SUNNY     86  49  27 W6        29.70R
HENDERSON      SUNNY     86  49  28 W7        29.67F
NACOGDOCHES    SUNNY     86  63  45 SW7       29.67S
LUFKIN         SUNNY     89  62  40 SW9       29.67S
$$

SUPPLEMENTAL OBSERVATIONS (CENTRAL)

CITY           SKY/WX    TMP DP  RH WIND       PRES   REMARKS
LAKE TEXOMA      N/A     82  46  28 W13         N/A
CADDO GRASSLND   N/A     84  50  30 SW6         N/A
PAT MAYSE LAKE   N/A     81  48  32 SW10        N/A
GREENVILLE       N/A     84  52  32 W6G14       N/A
CEDAR HILL       N/A     88  50  27 SW5         N/A
ATHENS           N/A     86  52  30 SW5G14      N/A
LAKE LIMESTONE   N/A     88  57  35 SW5         N/A
MCGREGOR         N/A     88  48  25 W6          N/A
TEMPLE           N/A     91  45  19 W5          N/A
$$

SUPPLEMENTAL OBSERVATIONS (WEST)

CITY           SKY/WX    TMP DP  RH WIND       PRES   REMARKS
POSSUM KINGDOM   N/A     84  43  23 W10G18      N/A
LBJ GRASSLAND    N/A     86  46  25 SW7G15      N/A
GRANBURY         N/A     86  50  28 SW12G20     N/A
COMANCHE         N/A     84  45  24 NW9G21      N/A
HAMBY            N/A     84  36  17 W13G21      N/A
$$

SUPPLEMENTAL OBSERVATIONS (EAST)

CITY           SKY/WX    TMP DP  RH WIND       PRES   REMARKS
CLARKSVILLE      N/A     84  55  37 CALM        N/A
TEXARKANA        N/A     86  52  30 SW6G15      N/A
LINDEN           N/A     88  48  25 W6          N/A
CADDO LAKE       N/A     90  50  25 W3          N/A
GILMER           N/A     88  46  23 W7G15       N/A
HENDERSON        N/A     86  48  26 W9          N/A
LUFKIN           N/A     90  63  40 MISG        N/A  HX  90
N SABINE NF      N/A     88  66  48 MISG        N/A  HX  90
S SABINE NF      N/A     86  66  51 CALM        N/A
$$

SUPPLEMENTAL OBSERVATIONS ARE A COLLECTION OF AUTOMATED INSTRUMENTS
THAT ARE MAINTAINED BY A VARIETY OF FEDERAL AND STATE AGENCIES.
CERTAIN ELEMENTS...SUCH AS HUMIDITY VALUES AND SUSTAINED WIND
SPEEDS...MAY BE APPROXIMATED.



USA.gov is the U.S. government's official web portal to all federal, state and local government web resources and services.